Location: Bernay
(48.6766°N, 2.9386°E)
Time: 01:21:31
(UTC+00:00)

SJ 16-02 - Pass Details

Date: 26 April 2026
Orbit: 582 x 592 km, 75.0° (Epoch: 19 May)

Event Time Altitude Azimuth Distance (km) Brightness Sun altitude
Rises 22:03:32 0° 330° (NNW) 2,821 6.2 -23.6°
Reaches altitude 10° 22:05:56 10° 320° (NW) 1,914 4.9 -23.7°
Maximum altitude 22:09:40 30° 259° (WSW) 1,051 2.6 -24.0°
Enters shadow 22:10:04 30° 248° (WSW) 1,063 2.5 -24.0°
